Home > Weather > Minden > Past weeks

Flag for Germany Past Weather in Minden, North Rhine-Westphalia, Germany — Yesterday and Last 2 Weeks

Now
50 °F

Partly cloudy.


Feels Like: 50 °F
Forecast: 49 / 71 °F
Wind: 2 mph from South

Location: Bueckeburg

Current Time: May 26, 2016 at 4:47:54 AM

Latest Report: May 26, 2016 at 4:20 AM


Visibility: N/A

Pressure: 30.01 "Hg

Humidity: 94%

Dew Point: 48 °F

Location of MindenLocation

Past Weather in Minden — Graph

°F

Minden Temperature Yesterday

Maximum temperature yesterday: 59 °F (at 5:20 PM)
Minimum temperature yesterday: 50 °F (at 5:20 AM)
Average temperature yesterday: 54 °F

High & Low Weather Summary for the Past Weeks

 TemperatureHumidityPressure
High79 °F (May 22, 2:20 PM)100% (May 22, 8:20 PM)30.07 "Hg (May 22, 8:20 PM)
Low41 °F (May 15, 4:20 AM)29% (May 13, 2:20 PM)29.53 "Hg (May 12, 5:20 PM)
Average57 °F70%29.86 "Hg
* Reported May 11 3:20 AM — May 26 3:20 AM, Minden, Weather by CustomWeather, © 2016

Note: Actual official high and low records may vary slightly from our data, if they occured in-between our weather recording intervals... More about our weather records

Advertising

Minden Weather History for the Previous 24 Hours

Scroll right to see more
 ConditionsComfort  
Time TempWeatherWind HumidityBarometerVisibility
3:20 AM
Thu, May 26
50 °FPassing clouds.6 mph94%30.01 "HgN/A
2:20 AM48 °FFog.2 mph94%30.01 "HgN/A
1:20 AM50 °FPassing clouds.1 mph94%30.01 "HgN/A
12:20 AM50 °FPassing clouds.2 mph94%30.01 "HgN/A
11:20 PM
Wed, May 25
52 °FPassing clouds.2 mph94%30.01 "HgN/A
10:20 PM54 °FBroken clouds.2 mph88%30.01 "HgN/A
9:20 PM55 °FBroken clouds.2 mph82%29.98 "HgN/A
8:20 PM57 °FPartly sunny.2 mph77%29.98 "HgN/A
7:20 PM59 °FPartly sunny.1 mph72%29.98 "HgN/A
6:20 PM59 °FPartly sunny.3 mph68%29.98 "HgN/A
5:20 PM59 °FPartly sunny.2 mph68%29.98 "HgN/A
4:20 PM57 °FPartly sunny.3 mph72%29.98 "HgN/A
3:20 PM57 °FPartly sunny.5 mph72%29.98 "HgN/A
2:20 PM57 °FPartly sunny.7 mph67%29.98 "HgN/A
1:20 PM55 °FPartly sunny.8 mph72%29.98 "HgN/A
12:20 PM54 °FPartly sunny.8 mph77%29.98 "HgN/A
11:20 AM54 °FPartly sunny.7 mph77%29.98 "HgN/A
10:20 AM54 °FPartly sunny.6 mph72%29.98 "HgN/A
9:20 AM52 °FPartly sunny.6 mph77%29.98 "HgN/A
8:20 AM52 °FOvercast.6 mph77%29.98 "HgN/A
7:20 AM50 °FOvercast.6 mph88%29.98 "HgN/A
6:20 AM50 °FOvercast.8 mph88%29.95 "HgN/A
5:20 AM50 °FMostly cloudy.6 mph88%29.95 "HgN/A
4:20 AM52 °FOvercast.5 mph82%29.95 "HgN/A
Weather by CustomWeather, © 2016

See weather overviewHow to use our weather pages